DW9033 Weather Reports


time (UTC)temp
C
wind
direction
speed
KPH
gust
KPH
rain 1hr
cm
rain 24hr
cm
rain mn
cm
humidity
%
barometer
mb
20260509013039 15 121 0.0 0.0 0.00 0.00 0.00 75 1013.4
20260509011530 16 121 0.0 0.0 0.00 0.00 0.00 73 1013.4
20260509010029 16 121 0.0 1.6 0.00 0.00 0.00 70 1013.4
20260509004538 16 121 0.0 0.0 0.00 0.00 0.00 67 1013.2
20260509003029 17 170 0.0 0.0 0.00 0.00 0.00 66 1013.3
20260509001528 17 161 0.0 1.6 0.00 0.00 0.00 65 1013.2
20260509000027 17 158 0.0 3.2 0.00 0.00 0.00 64 1013.0
20260508234509 18 146 0.0 3.2 0.00 0.00 0.00 62 1012.8
20260508233009 18 186 0.0 1.6 0.00 0.00 0.00 60 1013.1
20260508231509 19 166 0.0 4.8 0.00 0.00 0.00 58 1013.0
20260508230008 19 163 0.0 1.6 0.00 0.00 0.00 57 1012.8
20260508224508 19 123 0.0 6.4 0.00 0.00 0.00 56 1012.8
20260508223019 20 279 0.0 6.4 0.00 0.00 0.00 55 1013.1
20260508221508 20 263 0.0 6.4 0.00 0.00 0.00 53 1013.0
20260508220018 20 132 1.6 6.4 0.00 0.00 0.00 51 1012.7
20260508213011 21 246 0.0 6.4 0.00 0.00 0.00 50 1012.9
20260508211557 21 118 3.2 8.0 0.00 0.00 0.00 49 1012.9
20260508210052 21 97 1.6 11.3 0.00 0.00 0.00 49 1012.7
20260508204601 21 166 3.2 8.0 0.00 0.00 0.00 48 1012.8
20260508203057 21 154 3.2 11.3 0.00 0.00 0.00 47 1012.8
20260508201557 22 157 3.2 8.0 0.00 0.00 0.00 47 1013.2
20260508200100 22 192 4.8 12.9 0.00 0.00 0.00 45 1013.4
20260508194548 21 157 4.8 16.1 0.00 0.00 0.00 46 1013.6
20260508193053 22 186 4.8 12.9 0.00 0.00 0.00 45 1013.8
20260508191544 22 260 0.0 14.5 0.00 0.00 0.00 48 1013.9
20260508190033 21 86 4.8 14.5 0.00 0.00 0.00 47 1014.3
20260508184523 21 107 3.2 12.9 0.00 0.00 0.00 45 1014.5
20260508183004 21 101 1.6 11.3 0.00 0.00 0.00 47 1014.8
20260508181508 20 105 0.0 11.3 0.00 0.00 0.00 47 1015.0
20260508180108 21 111 1.6 9.7 0.00 0.00 0.00 45 1015.2
20260508174552 20 125 1.6 8.0 0.00 0.00 0.00 49 1015.3
20260508173051 20 154 0.0 8.0 0.00 0.00 0.00 46 1015.6
20260508171549 21 302 1.6 12.9 0.00 0.00 0.00 45 1015.6
20260508170049 21 133 1.6 8.0 0.00 0.00 0.00 46 1015.9
20260508164547 20 318 3.2 11.3 0.00 0.00 0.00 48 1016.1
20260508163044 20 90 3.2 12.9 0.00 0.00 0.00 48 1016.4
20260508161545 20 146 3.2 14.5 0.00 0.00 0.00 53 1016.6
20260508160037 19 176 4.8 11.3 0.00 0.00 0.00 51 1016.7
20260508154530 19 125 3.2 11.3 0.00 0.00 0.00 50 1017.0
20260508153026 19 244 0.0 6.4 0.00 0.00 0.00 53 1017.0
20260508151526 18 69 1.6 8.0 0.00 0.00 0.00 53 1017.1
20260508150023 18 296 0.0 9.7 0.00 0.00 0.00 56 1017.0
20260508144521 17 56 0.0 9.7 0.00 0.03 0.00 56 1017.0
20260508143120 18 84 1.6 8.0 0.00 0.03 0.00 56 1017.0
20260508141525 17 63 1.6 8.0 0.00 0.03 0.00 58 1017.2
20260508140006 17 174 1.6 9.7 0.00 0.03 0.00 61 1017.4
20260508134505 17 145 3.2 6.4 0.00 0.28 0.00 59 1017.5
20260508133001 16 29 0.0 6.4 0.00 0.28 0.00 62 1017.5
20260508131607 16 109 0.0 4.8 0.00 0.28 0.00 67 1017.3
20260508130056 16 87 0.0 1.6 0.00 0.28 0.00 68 1017.0
20260508124552 15 69 0.0 1.6 0.00 0.30 0.00 69 1016.9
20260508123050 15 97 0.0 0.0 0.00 0.30 0.00 72 1016.9
20260508121554 14 105 0.0 0.0 0.00 0.30 0.00 75 1016.7
20260508120037 13 74 0.0 0.0 0.00 0.30 0.00 85 1016.5
20260508114529 11 74 0.0 0.0 0.00 0.53 0.00 94 1016.3
20260508113025 9 74 0.0 0.0 0.00 0.53 0.00 94 1016.0
20260508111522 8 74 0.0 0.0 0.00 0.53 0.00 93 1015.6
20260508110020 8 74 0.0 0.0 0.00 0.53 0.00 92 1015.4
20260508104518 8 74 0.0 0.0 0.00 0.81 0.00 91 1015.2
20260508103027 8 74 0.0 0.0 0.00 0.81 0.00 90 1015.0
20260508101518 9 74 0.0 0.0 0.00 0.81 0.00 89 1014.8
20260508100059 9 74 0.0 0.0 0.00 0.81 0.00 88 1014.4
20260508094612 10 105 0.0 1.6 0.00 0.86 0.00 88 1014.3
20260508093056 10 271 0.0 1.6 0.00 0.86 0.00 86 1014.1
20260508091555 10 271 0.0 0.0 0.00 0.86 0.00 85 1014.1
20260508090109 11 271 0.0 0.0 0.00 0.86 0.00 81 1013.9
20260508084553 11 296 0.0 4.8 0.00 0.99 0.00 80 1014.1
20260508083111 11 287 0.0 3.2 0.00 0.99 0.00 83 1013.8
20260508081649 11 256 0.0 3.2 0.00 0.99 0.00 84 1014.0
20260508080037 10 254 0.0 0.0 0.00 0.99 0.00 86 1013.8
20260508074531 10 291 0.0 4.8 0.00 1.45 0.00 91 1013.9
20260508073030 9 221 0.0 0.0 0.00 1.45 0.00 93 1013.6
20260508071529 9 221 0.0 0.0 0.00 1.45 0.00 93 1013.7
20260508070026 9 221 0.0 0.0 0.00 1.45 0.00 93 1013.6
20260508064535 9 221 0.0 0.0 0.00 1.91 1.45 92 1013.3
20260508063025 9 269 0.0 0.0 0.00 1.91 1.45 92 1013.2
20260508061524 9 269 0.0 0.0 0.00 1.91 1.45 91 1013.3
20260508060005 9 269 0.0 0.0 0.00 1.91 1.45 91 1013.3
20260508054505 9 269 0.0 0.0 0.00 2.31 1.45 90 1013.5
20260508053051 10 269 0.0 0.0 0.00 2.31 1.45 89 1013.3
20260508051553 10 269 0.0 0.0 0.00 2.31 1.45 88 1013.3
20260508050045 10 269 0.0 0.0 0.00 2.31 1.45 86 1013.1
20260508044544 11 269 0.0 0.0 0.00 2.54 1.45 88 1012.9
20260508043049 11 269 0.0 0.0 0.00 2.54 1.45 88 1012.9
20260508041542 11 269 0.0 0.0 0.00 2.54 1.45 90 1012.9
20260508040041 11 229 0.0 1.6 0.00 2.54 1.45 90 1012.7
20260508034540 11 229 0.0 1.6 0.00 2.54 1.45 89 1012.9
20260508033027 11 275 0.0 0.0 0.00 2.54 1.45 88 1012.7
20260508031530 11 155 0.0 0.0 0.00 2.54 1.45 88 1012.8
20260508030023 12 155 0.0 0.0 0.00 2.54 1.45 86 1012.4
20260508024523 12 155 0.0 0.0 0.00 2.57 1.45 85 1012.5
20260508023026 12 287 0.0 0.0 0.00 2.57 1.45 83 1012.1
20260508021516 13 287 0.0 0.0 0.00 2.57 1.45 81 1011.8
20260508020009 13 287 0.0 1.6 0.00 2.57 1.45 79 1011.6
20260508014517 14 227 0.0 0.0 0.00 3.05 1.45 80 1011.3